Location: Dumpton Point
(51.3500°N, 1.4433°E)
Time: 04:07:28
(UTC+00:00)

Altair - Pass Details

Date: 07 October 2022
Orbit: 1501 x 1682 km, 47.2° (Epoch: 04 December)

Event Time Altitude Azimuth Distance (km) Brightness Sun altitude
Rises 09:02:02 0° 284° (WNW) 4,865 9.6 23.6°
Reaches altitude 10° 09:05:15 10° 279° (W) 3,897 9.3 24.0°
Maximum altitude 09:14:43 49° 209° (SSW) 2,062 8.7 24.9°
Drops below altitude 10° 09:24:17 10° 138° (SE) 3,939 11.5 25.9°
Sets 09:27:34 0° 133° (SE) 4,921 11.4 26.2°
